Simultaneous Nadir Overpasses (SNOs) Predictions

Prediction of SNOs between GOES-16 and LANDSAT-8 Satellite Orbit:

Table of predicted SNOs for the next 14.0 days since TLE Epoch: 3/14/2020
Index Date Time (GOES-16) GOES-16 Lat,Lon LANDSAT-8 Lat,Lon Distance(km) Time Diff (sec)
1 03/15/2020 15:09:02 -0.03, -75.20 -0.31, -73.92 145.77 80
2 03/16/2020 03:30:25 0.03, -75.18 -0.81, -79.11 447.06 80
3 03/17/2020 14:56:50 -0.03, -75.21 -0.95, -70.96 482.78 80
4 03/18/2020 03:18:13 0.03, -75.19 -0.16, -76.16 109.88 80
5 03/20/2020 03:03:21 0.03, -75.20 0.43, -73.19 228.20 80
6 03/20/2020 15:24:36 -0.03, -75.23 0.61, -78.36 355.09 80
7 03/22/2020 15:12:23 -0.03, -75.26 0.02, -75.39 16.13 80
8 03/24/2020 15:02:51 -0.03, -75.29 -0.63, -72.44 323.97 80
9 03/25/2020 03:24:15 0.03, -75.28 -0.47, -77.63 267.86 80
10 03/27/2020 03:09:23 0.03, -75.32 0.18, -74.68 72.56 80




NCC Satellite Simultaneous Nadir Overpasses (SNOs) Prediction Service
